CW3999 Weather Reports


Display with metric or nautical units.
time (UTC)temp
F
wind
direction
speed
MPH
gust
MPH
rain 1hr
in
rain 24hr
in
rain mn
in
humidity
%
barometer
mb
20260502220902 68 333 0.0 0.0 0.00 0.00 0.00 53 1011.5
20260502220401 68 334 0.0 0.0 0.00 0.00 0.00 51 1011.5
20260502215904 67 334 0.0 0.0 0.00 0.00 0.00 53 1011.6
20260502215402 68 334 0.0 0.0 0.00 0.00 0.00 52 1011.7
20260502214903 67 334 0.0 0.0 0.00 0.00 0.00 50 1011.7
20260502214402 67 334 0.0 0.0 0.00 0.00 0.00 50 1011.7
20260502213903 67 334 0.0 0.0 0.00 0.00 0.00 38 1011.8
20260502213401 65 334 0.0 0.0 0.00 0.00 0.00 49 1011.9
20260502212901 65 334 0.0 0.0 0.00 0.00 0.00 46 1012.0
20260502212401 65 334 0.0 0.0 0.00 0.00 0.00 39 1012.1
20260502211904 65 334 0.0 0.0 0.00 0.00 0.00 39 1012.2
20260502211404 64 334 0.0 0.0 0.00 0.00 0.00 47 1012.3
20260502210902 65 334 0.0 0.0 0.00 0.00 0.00 50 1012.3
20260502210403 66 332 0.0 0.0 0.00 0.00 0.00 42 1012.4
20260502205902 64 332 0.0 0.0 0.00 0.00 0.00 40 1012.5
20260502204904 64 332 0.0 0.0 0.00 0.00 0.00 43 1012.6
20260502203902 64 332 0.0 0.0 0.00 0.00 0.00 38 1012.8
20260502203402 63 332 0.0 0.0 0.00 0.00 0.00 27 1012.9
20260502202902 62 332 0.0 0.0 0.00 0.00 0.00 31 1012.9
20260502201902 62 332 0.0 0.0 0.00 0.00 0.00 19 1013.0
20260502200904 61 332 0.0 0.0 0.00 0.00 0.00 8 1013.2
20260502195902 60 331 0.0 0.0 0.00 0.00 0.00 100 1013.3
20260502195403 59 326 0.0 0.0 0.00 0.00 0.00 100 1013.2
20260502194904 59 15 0.0 0.0 0.00 0.00 0.00 100 1013.4
20260502194403 58 15 0.0 0.0 0.00 0.00 0.00 100 1013.4
20260502193903 58 22 0.0 0.0 0.00 0.00 0.00 100 1013.7
20260502193401 57 25 0.0 0.0 0.00 0.00 0.00 100 1013.7
20260502192902 57 25 0.0 0.0 0.00 0.00 0.00 100 1013.9
20260502191901 56 32 0.0 0.0 0.00 0.00 0.00 100 1013.8
20260502191402 56 32 0.0 0.0 0.00 0.00 0.00 100 1013.9
20260502190902 55 33 0.0 0.0 0.00 0.00 0.00 100 1014.0
20260502190402 55 33 0.0 0.0 0.00 0.00 0.00 100 1014.0
20260502185903 55 33 0.0 0.0 0.00 0.00 0.00 100 1014.2
20260502185404 55 33 0.0 0.0 0.00 0.00 0.00 100 1014.4
20260502184903 55 33 0.0 0.0 0.00 0.00 0.00 100 1014.4
20260502183903 54 34 0.0 0.0 0.00 0.00 0.00 100 1014.4
20260502183404 53 34 0.0 0.0 0.00 0.00 0.00 100 1014.4
20260502182902 53 35 0.0 0.0 0.00 0.00 0.00 100 1014.3
20260502182402 53 35 0.0 0.0 0.00 0.00 0.00 100 1014.3
20260502181902 53 35 0.0 0.0 0.00 0.00 0.00 100 1014.3
20260502181402 53 35 0.0 0.0 0.00 0.00 0.00 100 1014.2
20260502180902 53 35 0.0 0.0 0.00 0.00 0.00 100 1014.2
20260502170402 54 33 0.0 0.0 0.00 0.00 0.00 100 1014.7
20260502163402 54 33 0.0 0.0 0.00 0.00 0.00 100 1014.6
20260502162901 54 33 0.0 0.0 0.00 0.00 0.00 100 1014.6
20260502162402 54 33 0.0 0.0 0.00 0.00 0.00 100 1014.8
20260502161900 54 33 0.0 0.0 0.00 0.00 0.00 100 1014.9
20260502161403 54 33 0.0 0.0 0.00 0.00 0.00 100 1014.8
20260502160905 53 33 0.0 0.0 0.00 0.00 0.00 100 1014.8
20260502160351 53 33 0.0 0.0 0.00 0.00 0.00 100 1014.8
20260502152333 50 33 0.0 0.0 0.00 0.00 0.00 100 1014.9
20260502151330 50 33 0.0 0.0 0.00 0.00 0.00 100 1014.6
20260502150830 49 33 0.0 0.0 0.00 0.00 0.00 100 1014.5
20260502150322 49 33 0.0 0.0 0.00 0.00 0.00 100 1014.4
20260502130735 47 323 0.0 0.0 0.00 0.00 0.00 100 1014.6
20260502130232 47 323 0.0 0.0 0.00 0.00 0.00 100 1014.6
20260502123717 47 323 0.0 0.0 0.00 0.00 0.00 100 1014.7
20260502123219 47 323 0.0 0.0 0.00 0.00 0.00 100 1014.5
20260502122719 47 323 0.0 0.0 0.00 0.00 0.00 100 1014.6
20260502122218 47 323 0.0 0.0 0.00 0.00 0.00 100 1014.5
20260502121719 47 323 0.0 0.0 0.00 0.00 0.00 100 1014.4
20260502121219 47 323 0.0 0.0 0.00 0.00 0.00 100 1014.5
20260502120719 47 323 0.0 0.0 0.00 0.00 0.00 100 1014.5
20260502120206 47 323 0.0 0.0 0.00 0.00 0.00 100 1014.5
20260502115703 48 323 0.0 0.0 0.00 0.00 0.00 100 1014.5
20260502115202 48 323 0.0 0.0 0.00 0.00 0.00 100 1014.5
20260502114702 48 323 0.0 0.0 0.00 0.00 0.00 100 1014.5
20260502114200 48 323 0.0 0.0 0.00 0.00 0.00 100 1014.6
20260502113204 48 323 0.0 0.0 0.00 0.00 0.00 100 1014.5
20260502112704 48 323 0.0 0.0 0.00 0.00 0.00 100 1014.6
20260502112203 48 323 0.0 0.0 0.00 0.00 0.00 100 1014.7
20260502111703 48 323 0.0 0.0 0.00 0.00 0.00 100 1014.8
20260502111203 48 323 0.0 0.0 0.00 0.00 0.00 100 1014.7
20260502110704 49 323 0.0 0.0 0.00 0.00 0.00 100 1014.5
20260502110203 49 323 0.0 0.0 0.00 0.00 0.00 100 1014.4
20260502105202 49 323 0.0 0.0 0.00 0.00 0.00 100 1014.4
20260502104704 49 323 0.0 0.0 0.00 0.00 0.00 100 1014.5
20260502104204 49 323 0.0 0.0 0.00 0.00 0.00 100 1014.4
20260502103202 50 323 0.0 0.0 0.00 0.00 0.00 100 1014.4
20260502102203 50 323 0.0 0.0 0.00 0.00 0.00 100 1014.3
20260502101703 50 323 0.0 0.0 0.00 0.00 0.00 100 1014.4
20260502100703 50 323 0.0 0.0 0.00 0.00 0.00 100 1014.2
20260502100204 50 323 0.0 0.0 0.00 0.00 0.00 100 1014.3
20260502091204 51 323 0.0 0.0 0.00 0.00 0.00 9 1015.4
20260502090702 51 323 0.0 0.0 0.00 0.00 0.00 9 1015.4
20260502090202 51 323 0.0 0.0 0.00 0.00 0.00 10 1015.4
20260502071202 54 316 0.0 0.0 0.00 0.00 0.00 42 1015.2
20260502070704 54 319 0.0 0.0 0.00 0.00 0.00 42 1015.3
20260502065703 54 320 0.0 0.0 0.00 0.00 0.00 43 1015.3
20260502065204 54 319 0.0 0.0 0.00 0.00 0.00 43 1015.2
20260502064204 55 323 0.0 0.0 0.00 0.00 0.00 45 1015.3
20260502063703 55 333 0.0 0.0 0.00 0.00 0.00 45 1015.3
20260502063204 55 333 0.0 0.0 0.00 0.00 0.00 46 1015.2
20260502062204 55 329 0.0 0.0 0.00 0.00 0.00 47 1015.2
20260502061702 55 325 0.0 0.0 0.00 0.00 0.00 48 1015.1
20260502061203 55 320 0.0 0.0 0.00 0.00 0.00 50 1015.1
20260502060704 55 320 0.0 0.0 0.00 0.00 0.00 50 1015.0
20260502055203 56 296 0.0 0.0 0.00 0.00 0.00 53 1014.9
20260502054203 56 312 0.0 0.0 0.00 0.00 0.00 53 1014.9
20260502053703 56 304 0.0 0.0 0.00 0.00 0.00 54 1014.8
20260502052703 56 327 0.0 0.0 0.00 0.00 0.00 54 1014.8
20260502051202 57 301 0.0 0.0 0.00 0.00 0.00 55 1014.6
20260502050702 57 314 0.0 0.0 0.00 0.00 0.00 55 1014.7
20260502050203 57 310 0.0 0.0 0.00 0.00 0.00 55 1014.7
20260502045703 57 314 0.0 0.0 0.00 0.00 0.00 55 1014.7
20260502045202 58 304 0.0 0.0 0.00 0.00 0.00 56 1014.6
20260502044703 58 313 0.0 0.0 0.00 0.00 0.00 56 1014.6
20260502043703 58 300 0.0 0.0 0.00 0.00 0.00 57 1014.4
20260502043202 58 299 0.0 0.0 0.00 0.00 0.00 57 1014.3
20260502042203 59 301 0.0 0.0 0.00 0.00 0.00 57 1014.3
20260502041704 59 298 0.0 0.0 0.00 0.00 0.00 57 1014.2
20260502041204 59 335 0.0 0.0 0.00 0.00 0.00 57 1014.1
20260502040703 59 302 0.0 0.0 0.00 0.00 0.00 57 1014.1
20260502040203 59 300 0.0 0.0 0.00 0.00 0.00 57 1014.0
20260502035202 60 295 0.0 0.0 0.00 0.00 0.00 57 1013.9
20260502034201 60 282 0.0 0.0 0.00 0.00 0.00 57 1013.8
20260502033701 60 304 0.0 0.0 0.00 0.00 0.00 57 1013.7
20260502032703 61 325 0.0 0.0 0.00 0.00 0.00 57 1013.7
20260502032201 61 331 0.0 0.0 0.00 0.00 0.00 57 1013.6
20260502031700 61 326 0.0 0.0 0.00 0.00 0.00 56 1013.5
20260502031202 61 323 0.0 0.0 0.00 0.00 0.00 57 1013.4
20260502030701 62 331 0.0 0.0 0.00 0.00 0.00 56 1013.4
20260502030202 62 313 0.0 0.0 0.00 0.00 0.00 56 1013.4
20260502025204 62 334 0.0 0.0 0.00 0.00 0.00 56 1013.2
20260502024703 63 325 0.0 0.0 0.00 0.00 0.00 57 1013.1
20260502024203 63 315 0.0 0.0 0.00 0.00 0.00 56 1013.0
20260502023203 64 321 0.0 0.0 0.00 0.00 0.00 56 1012.9
20260502022702 65 325 0.0 0.0 0.00 0.00 0.00 56 1012.8
20260502022203 65 317 0.0 0.0 0.00 0.00 0.00 56 1012.7
20260502021703 66 318 0.0 0.0 0.00 0.00 0.00 56 1012.6
20260502020704 67 319 0.0 0.0 0.00 0.00 0.00 55 1012.5
20260502020203 67 318 0.0 0.0 0.00 0.00 0.00 55 1012.4
20260502015202 68 316 0.0 0.0 0.00 0.00 0.00 55 1012.4
20260502014701 68 305 0.0 0.0 0.00 0.00 0.00 55 1012.3
20260502014202 69 312 0.0 0.0 0.00 0.00 0.00 54 1012.3
20260502013702 69 314 0.0 0.0 0.00 0.00 0.00 55 1012.2
20260502012147 70 309 0.0 0.0 0.00 0.00 0.00 54 1012.2
20260502011635 71 309 0.0 0.0 0.00 0.00 0.00 54 1012.2
20260502011135 72 313 0.0 0.0 0.00 0.00 0.00 53 1012.2
20260502010632 73 313 0.0 0.0 0.00 0.00 0.00 52 1012.2
20260502005130 76 272 0.0 0.0 0.00 0.00 0.00 46 1012.1
20260502004630 76 272 0.0 0.0 0.00 0.00 0.00 47 1012.1
20260502004131 76 272 0.0 0.0 0.00 0.00 0.00 46 1012.1
20260502003629 76 272 0.0 0.0 0.00 0.00 0.00 45 1012.1
20260502003129 76 271 0.0 0.0 0.00 0.00 0.00 45 1012.1
20260502002630 75 272 0.0 0.0 0.00 0.00 0.00 45 1012.1
20260502002131 75 272 0.0 0.0 0.00 0.00 0.00 44 1012.1
20260502001629 76 272 0.0 0.0 0.00 0.00 0.00 44 1012.1
20260502001129 76 272 0.0 0.0 0.00 0.00 0.00 46 1012.1
20260502000630 76 272 0.0 0.0 0.00 0.00 0.00 44 1012.1
20260501235130 76 272 0.0 0.0 0.00 0.00 0.00 43 1012.1
20260501234622 76 272 0.0 0.0 0.00 0.00 0.00 44 1012.2
20260501234123 77 272 0.0 0.0 0.00 0.00 0.00 47 1012.1
20260501233614 77 272 0.0 0.0 0.00 0.00 0.00 45 1012.2
20260501233115 77 272 0.0 0.0 0.00 0.00 0.00 46 1012.2
20260501232615 77 272 0.0 0.0 0.00 0.00 0.00 47 1012.2
20260501232115 77 272 0.0 0.0 0.00 0.00 0.00 46 1012.3
20260501231607 77 272 0.0 0.0 0.00 0.00 0.00 42 1012.3
20260501231107 77 271 0.0 0.0 0.00 0.00 0.00 43 1012.4
20260501230607 76 272 0.0 0.0 0.00 0.00 0.00 43 1012.5
20260501230107 76 272 0.0 0.0 0.00 0.00 0.00 44 1012.7
20260501225603 76 272 0.0 0.0 0.00 0.00 0.00 45 1012.7
20260501225101 76 272 0.0 0.0 0.00 0.00 0.00 42 1012.8
20260501224601 76 272 0.0 0.0 0.00 0.00 0.00 44 1012.8
20260501224101 76 272 0.0 0.0 0.00 0.00 0.00 46 1012.9
20260501223601 76 272 0.0 0.0 0.00 0.00 0.00 46 1012.9
20260501223103 75 272 0.0 0.0 0.00 0.00 0.00 46 1012.9
20260501222103 75 272 0.0 0.0 0.00 0.00 0.00 45 1013.1
20260501221602 74 271 0.0 0.0 0.00 0.00 0.00 48 1013.0
20260501221103 74 272 0.0 0.0 0.00 0.00 0.00 45 1013.1